Home > Time Zones > World Clock > Weather > Iran > Gorgan > Past weeks

Flag for Iran Weather past 2 weeks in Gorgan, Iran

Now
81 °F

Passing clouds.


Feels Like: 83 °F
Forecast: 70 / 88 °F
Wind: 9 mph from Southwest

Location: Gorgan Airport

Current Time: Sep 16, 2014 at 8:58:22 PM

Latest Report: Sep 16, 2014 at 8:30 PM


Visibility: 5 mi

Pressure: 29.77 "Hg

Humidity: 66%

Dew point: 68 °F

Location of GorganLocation

Historic Weather in Gorgan — Graph

°F

Gorgan temperature yesterday

Maximum temperature yesterday: 88 °F (at 12:30 PM)
Minimum temperature yesterday: 75 °F (at 6:30 AM)
Average temperature yesterday: 81 °F

Past Weeks' High & Low Weather Summary

 TemperatureHumidityPressure
High99 °F (Sep 3, 4:00 PM)94% (Sep 7, 7:30 AM)30.21 "Hg (Sep 7, 7:30 AM)
Low70 °F (Sep 7, 5:30 AM)33% (Sep 3, 4:00 PM)29.65 "Hg (Sep 5, 1:30 AM)
Average83 °F66%29.84 "Hg
* Reported Sep 1 7:30 PM — Sep 16 7:30 PM, Gorgan, Weather by CustomWeather, © 2014

Note: Actual official high and low records may vary slightly from our data, if they occured in-between our weather recording intervals... More about our weather records

Advertising

Gorgan weather history for previous 24 hours

 ConditionsComfort  
Time TempWeatherWind HumidityBarometerVisibility
7:30 PM
Sep 16
81 °FPartly sunny.12 mph66%29.74 "HgN/A
6:30 PM82 °FPartly sunny.14 mph58%29.74 "HgN/A
5:30 PM86 °FScattered clouds.14 mph52%29.74 "HgN/A
4:30 PM88 °FPassing clouds.12 mph43%29.74 "HgN/A
3:30 PM90 °FPassing clouds.12 mph38%29.74 "HgN/A
2:30 PM88 °FPassing clouds.No wind38%29.74 "HgN/A
1:30 PM88 °FPassing clouds.7 mph40%29.77 "HgN/A
12:30 PM86 °FPassing clouds.No wind46%29.80 "HgN/A
11:30 AM84 °FPassing clouds.7 mph45%29.83 "HgN/A
11:00 AM84 °FPassing clouds.5 mph48%29.83 "HgN/A
10:30 AM82 °FPassing clouds.9 mph55%29.86 "HgN/A
9:30 AM81 °FScattered clouds.7 mph62%29.86 "HgN/A
8:30 AM79 °FScattered clouds.5 mph70%29.86 "HgN/A
7:30 AM75 °FPartly cloudy.7 mph69%29.86 "HgN/A
6:30 AM75 °FPartly cloudy.7 mph69%29.86 "HgN/A
5:30 AM75 °FPartly cloudy.5 mph69%29.86 "HgN/A
4:30 AM75 °FPartly cloudy.7 mph74%29.86 "HgN/A
3:30 AM75 °FPartly cloudy.7 mph74%29.86 "HgN/A
2:30 AM77 °FPartly cloudy.7 mph65%29.86 "HgN/A
1:30 AM77 °FMostly cloudy.7 mph69%29.86 "HgN/A
12:30 AM77 °FMostly cloudy.5 mph69%29.86 "HgN/A
11:30 PM
Sep 15
77 °FMostly cloudy.7 mph74%29.86 "HgN/A
10:30 PM79 °FMostly cloudy.7 mph65%29.86 "HgN/A
9:30 PM79 °FMostly cloudy.7 mph65%29.86 "HgN/A
8:30 PM79 °FMostly cloudy.7 mph65%29.86 "HgN/A
Weather by CustomWeather, © 2014

See weather overviewHow to use our weather pages